Regional Weather Roundup
Issued by NWS Cleveland, OH

Home | Current Version | Previous Version | Text Only | Print | Product List | Glossary On
Versions: 1 2 3 4 5 6 7 8 9 10 11 12 13 14 15 16 17 18 19 20 21 22 23 24 25 26 27 28 29 30 31 32 33 34 35 36 37 38 39 40 41 42 43 44 45 46 47 48 49 50
000
ASUS41 KCLE 031310
RWRCLE
OHIO REGIONAL WEATHER ROUNDUP
NATIONAL WEATHER SERVICE CLEVELAND, OH
900 AM EDT FRI JUL 03 2015

NOTE: "FAIR" INDICATES FEW OR NO CLOUDS BELOW 12,000 FEET WITH NO
SIGNIFICANT WEATHER AND/OR OBSTRUCTIONS TO VISIBILITY.

OHZ001>008-015>018-024>027-034-035-043-044-031400-
   NORTHWEST OHIO

CITY           SKY/WX    TMP DP  RH WIND       PRES   REMARKS
DEFIANCE       PTSUNNY   63  56  78 E6        29.99R
FINDLAY        PTSUNNY   64  55  72 E7        29.97R
TOLEDO EXPRESS PTSUNNY   63  55  75 NE7       29.99R
TOLEDO EXEC    PTSUNNY   65  56  72 NE5       30.00S
LIMA           CLOUDY    63  56  78 E7        29.97R
$$

OHZ009>014-019>023-028>033-038-089-031400-
   NORTHEAST OHIO

CITY           SKY/WX    TMP DP  RH WIND       PRES   REMARKS
CLE-HOPKINS    MOSUNNY   64  51  62 NE7       30.01S
CLE-LAKEFRONT  SUNNY     66  52  60 NE3       29.99R
CUY CO. ARPT   MOSUNNY   66  55  68 SE8       30.01R
LORAIN-ELYRIA  MOSUNNY   63  53  70 E7        30.00S
ASHTABULA      SUNNY     62  53  72 E6        30.02S
AKRON-CANTON   PTSUNNY   64  55  72 E7        29.99R
WOOSTER        MOSUNNY   63  55  75 E3        29.99S
MANSFIELD      PTSUNNY   62  53  72 E8        29.98S
YOUNGSTOWN     PTSUNNY   61  55  81 E8        30.00S
$$

OHZ042-051>053-060>062-070>072-077>081-031400-
  SOUTHWEST OHIO

CITY           SKY/WX    TMP DP  RH WIND       PRES   REMARKS
CINC-COVINGTON CLOUDY    68  64  87 NE10      29.89F
CINC-LUNKEN    CLOUDY    68  63  84 E7        29.89F
HAMILTON       CLOUDY    68  61  78 E8        29.91F
DAYTON         CLOUDY    66  58  75 E8        29.94F
WRIGHT-PAT AFB CLOUDY    66  56  71 NE9       29.93S
DAYTON GENERAL CLOUDY    65  58  78 E8        29.91F
WILMINGTON     PTSUNNY   65  58  78 E9        29.91F
$$

OHZ036-037-039>041-045>050-054>059-063>069-073>076-082>088-031400-
  CENTRAL AND SOUTHEAST OHIO

CITY           SKY/WX    TMP DP  RH WIND       PRES   REMARKS
COLUMBUS       CLOUDY    66  57  72 E8        29.94S
OSU AIRPORT    PTSUNNY   66  57  72 E6        29.95R
BOLTON FIELD   SUNNY     64  57  77 E3        29.95S
RICKENBACK AFB PTSUNNY   63  58  83 E7        29.93F
NEWARK         MOSUNNY   64  56  75 NE6       29.95S
MARION         PTSUNNY   63  54  72 SE5       29.97S
LANCASTER      MOSUNNY   65  58  78 VRB3      29.95S
ZANESVILLE     NOT AVBL
NEW PHILLY     MOSUNNY   64  56  75 CALM      29.98S
$$


USA.gov is the U.S. government's official web portal to all federal, state and local government web resources and services.